Latest Conditions
At L.F.Wade Int. Airport
Recorded at 2:55 am
Few Clouds
Temp.: 
27°C/81°F
Humidity: 
75%
Wind: 
WSW 12KT
or 14mph
UV Index: 
N/A
Island Observations
 
Observations
Monday, July 24, 2017

Observations are in local time and taken at least once an hour, or upon the start and end of specified events such as showers and thunderstorms.

Time Sky / Weather Wind Speed/Gusts Temp. R.H. Pressure
     knots (mph)  °C (°F)  %  mb / "Hg
 02:55 Few Clouds  WSW 12/0 (14/0) 27(81) 75 1020 / 30.13
 01:55 Few Clouds  WSW 12/0 (14/0) 28(82) 78 1020 / 30.13
 00:55 Few Clouds  WSW 10/0 (12/0) 28(82) 77 1021 / 30.14
 23:55 Few Clouds  WSW 11/0 (13/0) 28(82) 76 1021 / 30.15
 22:55 Few Clouds  WSW 12/0 (14/0) 28(82) 77 1021 / 30.15
 21:55 Few Clouds  W 13/0 (15/0) 28(83) 75 1021 / 30.14
 20:55 Few Clouds  W 14/0 (16/0) 28(83) 75 1020 / 30.12
 19:55 Few Clouds  W 15/0 (17/0) 29(84) 73 1020 / 30.11
 18:55 Few Clouds  W 16/0 (18/0) 29(85) 72 1019 / 30.09
 17:55 Partly Cloudy  W 16/0 (18/0) 30(86) 71 1019 / 30.09
 16:55 Few Clouds  W 16/0 (18/0) 30(86) 72 1019 / 30.10
 15:55 Partly Cloudy  W 17/0 (20/0) 30(87) 69 1020 / 30.11
 14:55 Mostly Cloudy  W 15/0 (17/0) 30(86) 72 1020 / 30.11
 13:55 Partly Cloudy  W 15/0 (17/0) 30(87) 72 1019 / 30.10
 12:55 Mostly Cloudy  W 16/0 (18/0) 30(86) 72 1020 / 30.11
 11:55 Few Clouds  W 16/0 (18/0) 30(86) 71 1019 / 30.10
 10:55 Few Clouds  W 16/0 (18/0) 30(86) 73 1019 / 30.09
 09:55 Partly Cloudy  W 16/0 (18/0) 29(85) 75 1019 / 30.09
 08:55 Mostly Cloudy  W 14/0 (16/0) 28(83) 77 1019 / 30.09
 07:55 Partly Cloudy  W 12/0 (14/0) 28(83) 78 1019 / 30.09
 06:55 Partly Cloudy  W 13/0 (15/0) 28(82) 79 1018 / 30.07
 05:55 Few Clouds  W 13/0 (15/0) 28(82) 79 1018 / 30.07
 04:55 Few Clouds  WNW 13/0 (15/0) 28(82) 79 1018 / 30.07
 03:55 Few Clouds  W 16/0 (18/0) 28(82) 80 1018 / 30.07
 02:55 Partly Cloudy  W 14/0 (16/0) 28(82) 79 1019 / 30.08
 01:55 Partly Cloudy  W 12/0 (14/0) 28(82) 79 1019 / 30.08
 00:55 Partly Cloudy  W 13/0 (15/0) 28(82) 78 1019 / 30.10
 23:55 Partly Cloudy  W 12/0 (14/0) 28(82) 77 1019 / 30.10
 22:55 Partly Cloudy  W 14/0 (16/0) 28(83) 77 1020 / 30.11
 21:55 Mostly Cloudy  W 13/0 (15/0) 28(83) 79 1019 / 30.10
 20:55 Partly Cloudy  W 16/0 (18/0) 28(83) 77 1019 / 30.10
 19:55 Partly Cloudy  W 16/0 (18/0) 29(84) 76 1019 / 30.09
 18:55 Mostly Cloudy  W 16/0 (18/0) 29(84) 75 1019 / 30.09
 18:14 Mostly Cloudy  W 15/0 (17/0) 30(85) 76 1019 / 30.09
 17:55 Mostly Cloudy  W 16/0 (18/0) 30(85) 74 1019 / 30.09
 17:38 Mostly Cloudy  W 15/0 (17/0) 30(86) 73 1019 / 30.09
 16:55 Few Clouds  W 15/0 (17/0) 30(86) 73 1019 / 30.10
 15:55 Few Clouds  WNW 16/0 (18/0) 30(86) 71 1020 / 30.11
 14:55 Few Clouds  W 16/0 (18/0) 30(86) 69 1020 / 30.11
 13:55 Few Clouds  W 16/0 (18/0) 30(86) 72 1020 / 30.12
 12:55 Few Clouds  W 16/0 (18/0) 30(86) 72 1020 / 30.12
 11:55 Mostly Cloudy  W 15/0 (17/0) 30(86) 72 1020 / 30.13
 10:55 Few Clouds  W 16/0 (18/0) 30(85) 74 1020 / 30.12
 09:55 Few Clouds  W 15/0 (17/0) 29(84) 74 1020 / 30.12
 08:55 Partly Cloudy  W 16/0 (18/0) 29(84) 77 1020 / 30.11
 07:55 Partly Cloudy  W 14/0 (16/0) 28(83) 80 1019 / 30.10
 06:55 Mostly Cloudy  W 14/0 (16/0) 28(82) 81 1019 / 30.10
 05:55 Partly Cloudy  W 13/0 (15/0) 28(82) 81 1019 / 30.09
 04:55 Mostly Cloudy  W 12/0 (14/0) 28(82) 80 1019 / 30.09
 03:55 Mostly Cloudy  W 11/0 (13/0) 28(82) 82 1019 / 30.10
 02:55 Partly Cloudy  W 12/0 (14/0) 28(82) 82 1019 / 30.10
 01:55 Partly Cloudy  W 11/0 (13/0) 28(82) 82 1020 / 30.12
 00:55 Partly Cloudy  W 10/0 (12/0) 28(82) 81 1020 / 30.13
 23:55 Few Clouds  W 12/0 (14/0) 28(82) 81 1020 / 30.13
 22:55 Partly Cloudy  W 14/0 (16/0) 28(82) 82 1021 / 30.15
 21:55 Partly Cloudy  W 10/0 (12/0) 28(82) 79 1021 / 30.14
 20:55 Mostly Cloudy Showers W 12/0 (14/0) 28(82) 75 1020 / 30.13
 19:55 Mostly Cloudy Showers W 19/0 (22/0) 27(81) 82 1020 / 30.12
 19:37 Mostly Cloudy Showers W 15/0 (17/0) 28(83) 79 1020 / 30.12
 18:55 Mostly Cloudy Showers W 15/0 (17/0) 29(84) 77 1020 / 30.12
 17:55 Mostly Cloudy Showers W 18/0 (21/0) 28(83) 81 1020 / 30.11
 17:43 Mostly Cloudy Showers W 14/0 (16/0) 29(84) 75 1020 / 30.11
 16:55 Mostly Cloudy  W 16/0 (18/0) 30(87) 73 1020 / 30.12
 15:55 Mostly Cloudy  W 16/0 (18/0) 30(85) 73 1020 / 30.12
 14:55 Mostly Cloudy  W 16/0 (18/0) 30(86) 70 1020 / 30.13
 14:00 Mostly Cloudy Showers W 16/0 (18/0) 30(86) 74 1021 / 30.14
 13:55 Mostly Cloudy Showers WSW 13/0 (15/0) 29(85) 74 1021 / 30.14
 12:55 Mostly Cloudy Showers WSW 15/0 (17/0) 28(82) 81 1021 / 30.15
 12:44 Mostly Cloudy Showers WSW 16/0 (18/0) 27(81) 82 1021 / 30.15
 12:37 Mostly Cloudy Showers W 17/0 (20/0) 27(81) 85 1021 / 30.15
 12:23 Mostly Cloudy Showers WSW 14/0 (16/0) 28(83) 73 1021 / 30.15
 11:55 Mostly Cloudy  WSW 13/0 (15/0) 29(85) 73 1021 / 30.15
 10:55 Mostly Cloudy  WSW 14/0 (16/0) 29(85) 74 1021 / 30.15
 09:55 Mostly Cloudy  WSW 15/0 (17/0) 29(84) 75 1021 / 30.14
 08:55 Partly Cloudy  WSW 13/0 (15/0) 28(83) 79 1020 / 30.13
 07:55 Mostly Cloudy  WSW 12/0 (14/0) 27(81) 83 1020 / 30.13
 06:55 Mostly Cloudy Showers SW 13/0 (15/0) 26(79) 86 1020 / 30.12
 06:44 Mostly Cloudy Showers WSW 13/0 (15/0) 26(79) 86 1020 / 30.12
 06:32 Mostly Cloudy Showers WSW 12/0 (14/0) 26(79) 86 1020 / 30.12
 05:55 Mostly Cloudy Showers W 12/0 (14/0) 25(77) 89 1020 / 30.11
 05:44 Mostly Cloudy Showers WSW 12/0 (14/0) 26(78) 88 1020 / 30.11
 04:55 Mostly Cloudy Showers WSW 12/0 (14/0) 26(80) 85 1020 / 30.12
 03:55 Mostly Cloudy  WSW 9/0 (10/0) 26(78) 88 1020 / 30.12
 03:20 Mostly Cloudy Showers WSW 10/0 (12/0) 25(77) 90 1020 / 30.13
 02:55 Overcast Showers W 13/23 (15/26) 24(75) 89 1021 / 30.14
 02:46 Overcast Showers W 11/0 (13/0) 24(76) 89 1021 / 30.14
 01:55 Mostly Cloudy Showers WSW 9/0 (10/0) 25(78) 87 1021 / 30.15
 01:43 Mostly Cloudy Showers WSW 9/0 (10/0) 25(78) 88 1021 / 30.15
 01:27 Mostly Cloudy Showers SW 10/0 (12/0) 24(76) 90 1021 / 30.16
 01:16 Overcast Showers WSW 18/0 (21/0) 24(75) 90 1021 / 30.16
 01:08 Overcast Showers WSW 13/26 (15/30) 24(76) 89 1021 / 30.16
 01:05 Overcast Showers WSW 10/0 (12/0) 25(78) 86 1021 / 30.16
 00:55 Mostly Cloudy Showers SW 8/0 (9/0) 26(79) 86 1021 / 30.15
 00:14 Mostly Cloudy Showers SW 11/0 (13/0) 26(78) 85 1021 / 30.16
 23:55 Mostly Cloudy Showers WSW 11/0 (13/0) 25(77) 88 1022 / 30.17
 23:47 Overcast Showers SW 10/0 (12/0) 25(77) 88 1022 / 30.17
 23:37 Mostly Cloudy Showers WNW 11/0 (13/0) 25(77) 88 1022 / 30.17
 23:22 Mostly Cloudy Showers SW 11/0 (13/0) 26(78) 84 1022 / 30.17
 22:55 Mostly Cloudy Showers WSW 13/0 (15/0) 26(79) 80 1022 / 30.17
 22:42 Mostly Cloudy Showers WSW 13/0 (15/0) 26(79) 81 1022 / 30.17
Observations from our AWOS sites are available here (password and username are both 'guest').